KC5DP Weather Reports


time (UTC)temp
F
wind
direction
speed
knots
gust
knots
rain 1hr
in
rain 24hr
in
rain mn
in
humidity
%
barometer
mb
20260509203418 67 113 0.0 0.0 0.05 2.39 2.39 99 1010.9
20260509202916 67 31 1.7 1.7 0.19 2.39 2.39 99 1010.4
20260509202412 67 126 0.9 0.9 0.26 2.38 2.38 99 1010.3
20260509201907 67 108 0.0 0.0 0.24 2.36 2.36 99 1010.8
20260509201402 67 125 0.0 0.0 0.54 2.34 2.34 99 1010.9
20260509200859 67 115 0.0 0.9 0.71 2.32 2.32 99 1010.6
20260509200354 67 128 0.0 0.9 0.42 2.26 2.26 99 1011.5
20260509195851 67 112 0.0 0.0 0.12 2.20 2.20 99 1011.8
20260509195351 67 107 0.0 0.0 0.17 2.19 2.19 99 1011.3
20260509194851 67 111 0.0 0.0 0.24 2.18 2.18 99 1011.5
20260509194347 67 74 1.7 2.6 0.24 2.17 2.17 99 1010.6
20260509193844 67 86 0.9 0.9 0.26 2.14 2.14 99 1011.4
20260509193344 67 129 0.9 0.9 0.31 2.13 2.13 99 1011.7
20260509192840 67 95 0.0 0.9 0.31 2.11 2.11 99 1011.6
20260509192336 67 104 1.7 1.7 0.35 2.08 2.08 99 1011.7
20260509191831 67 119 0.0 0.9 0.31 2.05 2.05 99 1011.7
20260509191327 67 62 1.7 1.7 0.19 2.02 2.02 99 1012.1
20260509190824 67 110 0.0 0.0 0.07 2.00 2.00 99 1012.1
20260509190321 67 113 0.0 0.0 0.00 1.99 1.99 99 1012.3
20260509185818 67 120 0.0 0.0 0.05 1.99 1.99 99 1011.8
20260509185314 67 109 0.0 0.0 0.05 1.99 1.99 99 1011.6
20260509184812 67 99 0.0 0.9 0.00 1.98 1.98 99 1011.6
20260509184309 67 79 0.0 0.0 0.00 1.98 1.98 99 1011.9
20260509183806 67 74 0.0 0.0 0.07 1.98 1.98 99 1011.7
20260509183301 67 94 0.0 0.0 0.12 1.98 1.98 99 1012.1
20260509182756 67 99 0.0 0.0 0.05 1.97 1.97 99 1012.0
20260509182254 67 106 0.0 0.0 0.00 1.96 1.96 99 1012.0
20260509181751 66 124 0.0 0.0 0.07 1.96 1.96 99 1012.0
20260509181249 66 101 0.0 0.0 0.07 1.96 1.96 99 1011.9
20260509180746 66 107 0.0 0.0 0.07 1.96 1.96 99 1011.8
20260509180242 66 78 0.0 0.0 0.00 1.95 1.95 99 1011.8
20260509175738 66 102 0.0 0.0 0.00 1.95 1.95 99 1011.8
20260509175235 66 94 0.9 0.9 0.05 1.95 1.95 99 1011.9
20260509174731 66 108 0.9 0.9 0.05 1.95 1.95 99 1012.1
20260509174226 66 106 0.0 0.0 0.00 1.94 1.94 99 1012.1
20260509173723 66 115 0.0 0.0 0.00 1.94 1.94 99 1011.8
20260509173219 66 107 0.0 0.0 0.00 1.94 1.94 99 1011.6
20260509172715 66 109 0.0 0.0 0.00 1.94 1.94 99 1011.6
20260509172211 66 102 0.0 0.0 0.00 1.94 1.94 99 1011.5
20260509171707 66 91 0.0 0.0 0.00 1.94 1.94 99 1011.8
20260509171203 66 87 1.7 2.6 0.00 1.94 1.94 99 1011.8
20260509170700 66 116 0.0 0.0 0.00 1.94 1.94 99 1012.0
20260509170156 66 122 0.0 0.0 0.00 1.94 1.94 99 1011.9
20260509165654 66 109 0.0 0.0 0.00 1.94 1.94 99 1011.8
20260509165150 66 67 0.0 0.0 0.00 1.94 1.94 99 1011.9
20260509164646 66 125 0.0 0.0 0.00 1.94 1.94 99 1012.0
20260509164142 66 96 0.0 0.0 0.00 1.94 1.94 99 1011.8
20260509163640 66 90 0.9 1.7 0.00 1.94 1.94 99 1012.1
20260509163135 66 109 0.0 0.9 0.00 1.94 1.94 99 1012.1
20260509162633 66 115 0.0 0.0 0.07 1.94 1.94 99 1012.0
20260509162129 66 113 0.0 0.0 0.07 1.94 1.94 99 1012.0
20260509161625 66 109 0.0 0.0 0.00 1.93 1.93 99 1012.1
20260509161120 66 90 0.9 0.9 0.00 1.93 1.93 99 1012.2
20260509160616 66 140 0.9 1.7 0.00 1.93 1.93 99 1012.3
20260509160112 66 99 1.7 1.7 0.00 1.93 1.93 99 1012.0
20260509155608 66 97 0.0 0.9 0.00 1.93 1.93 99 1011.8
20260509155105 66 122 1.7 1.7 0.00 1.93 1.93 99 1012.3
20260509154600 66 93 0.0 0.0 0.00 1.93 1.93 99 1012.2
20260509154058 66 81 0.0 0.0 0.00 1.93 1.93 99 1012.4
20260509153555 66 99 1.7 3.5 0.00 1.93 1.93 99 1012.1
20260509153052 66 75 1.7 2.6 0.05 1.93 1.93 99 1012.0
20260509152548 66 91 2.6 2.6 0.12 1.93 1.93 99 1011.8
20260509152045 66 101 3.5 3.5 0.12 1.92 1.92 99 1011.8
20260509151541 66 117 0.0 0.9 0.12 1.92 1.92 99 1011.9
20260509151039 66 110 0.0 0.9 0.12 1.91 1.91 99 1012.0
20260509150536 66 110 0.0 0.0 0.19 1.90 1.90 99 1011.6
20260509150035 66 106 0.0 0.0 0.31 1.89 1.89 99 1011.2
20260509145530 66 116 0.9 1.7 0.38 1.88 1.88 99 1011.5
20260509145025 66 147 0.9 0.9 0.17 1.84 1.84 99 1011.6
20260509144522 66 113 0.9 0.9 0.17 1.82 1.82 99 1011.5
20260509144020 66 116 0.0 0.0 0.24 1.81 1.81 99 1011.2
20260509143517 65 113 0.0 0.0 0.17 1.80 1.80 99 1011.3
20260509143015 65 110 0.0 0.0 0.19 1.77 1.77 99 1011.4
20260509142510 65 89 0.0 0.0 0.12 1.76 1.76 99 1011.7
20260509142005 65 87 2.6 2.6 0.00 1.74 1.74 99 1011.9
20260509141502 65 109 0.9 0.9 0.07 1.74 1.74 99 1011.7
20260509140959 65 112 0.0 0.0 0.07 1.74 1.74 99 1011.2
20260509140455 65 98 0.0 0.0 0.00 1.73 1.73 99 1010.9
20260509135954 65 63 0.9 0.9 0.12 1.73 1.73 99 1011.4
20260509135451 65 119 0.0 0.0 0.17 1.73 1.73 99 1011.4
20260509134948 65 95 0.0 0.0 0.05 1.71 1.71 99 1011.5
20260509134445 65 115 0.0 0.0 0.07 1.70 1.70 99 1011.6
20260509133943 65 110 0.0 0.0 0.12 1.70 1.70 99 1011.7
20260509133439 65 112 0.0 0.0 0.17 1.69 1.69 99 1011.6
20260509132937 65 100 0.0 0.0 0.24 1.68 1.68 99 1011.4
20260509132435 65 103 0.0 0.0 0.26 1.66 1.66 99 1011.9
20260509131932 65 109 0.0 0.0 0.26 1.64 1.64 99 1012.2
20260509131429 65 110 0.0 0.0 0.24 1.62 1.62 99 1012.1
20260509130926 65 91 0.0 0.0 0.24 1.60 1.60 99 1012.0
20260509130421 65 113 0.0 0.0 0.17 1.58 1.58 99 1011.9
20260509125918 65 125 0.9 1.7 0.12 1.56 1.56 99 1011.4
20260509125415 65 97 0.0 0.0 0.24 1.55 1.55 99 1011.0
20260509124911 65 95 0.9 0.9 0.31 1.54 1.54 99 1011.1
20260509124408 65 96 0.0 0.0 0.19 1.51 1.51 99 1011.3
20260509123906 65 98 0.9 0.9 0.24 1.49 1.49 99 1011.4
20260509123403 65 160 0.9 1.7 0.42 1.48 1.48 99 1011.6
20260509122858 65 127 0.9 0.9 0.54 1.46 1.46 99 1011.6
20260509122355 65 113 0.0 0.0 0.78 1.41 1.41 99 1011.4
20260509121852 65 94 0.0 0.0 0.71 1.36 1.36 99 1011.7
20260509121349 65 135 0.9 0.9 1.02 1.28 1.28 99 1011.5
20260509120848 64 107 0.0 0.0 1.44 1.23 1.23 99 1011.0
20260509120345 64 334 1.7 2.6 1.91 1.11 1.11 99 1011.0
20260509115843 64 325 3.5 5.2 4.18 0.99 0.99 99 1011.3
20260509115340 65 291 5.2 7.8 3.66 0.74 0.74 99 1011.0
20260509114837 68 339 3.5 6.1 1.25 0.34 0.34 99 1011.8
20260509114336 69 311 4.3 6.1 0.00 0.13 0.13 99 1011.5
20260509113835 69 35 0.9 1.7 0.00 0.13 0.13 99 1009.5
20260509113331 69 102 0.0 0.0 0.00 0.13 0.13 99 1008.9
20260509112828 69 102 0.0 0.0 0.00 0.13 0.13 99 1009.0
20260509112325 69 112 0.0 0.0 0.00 0.13 0.13 99 1009.0
20260509111822 69 83 0.9 0.9 0.00 0.13 0.13 99 1008.9
20260509111319 69 105 0.0 0.0 0.00 0.13 0.13 99 1008.8
20260509110817 69 104 0.0 0.0 0.00 0.13 0.13 99 1008.8
20260509110313 69 115 0.0 0.0 0.00 0.13 0.13 99 1008.5
20260509105811 69 126 0.9 0.9 0.00 0.13 0.13 99 1008.5
20260509105309 69 62 0.0 0.0 0.00 0.13 0.13 99 1008.4
20260509104805 69 106 0.0 0.0 0.00 0.13 0.13 99 1008.4
20260509104302 69 109 0.0 0.0 0.00 0.13 0.13 99 1008.6
20260509103800 69 112 0.0 0.0 0.00 0.13 0.13 99 1008.8
20260509103257 69 106 0.0 0.0 0.00 0.13 0.13 99 1009.0
20260509102756 69 108 0.0 0.0 0.00 0.13 0.13 99 1009.0
20260509102253 69 111 0.0 0.0 0.00 0.13 0.13 99 1009.1
20260509101749 69 112 0.0 0.0 0.00 0.13 0.13 99 1008.7
20260509101245 69 115 0.0 0.0 0.00 0.13 0.13 99 1008.7
20260509100742 69 110 0.0 0.0 0.00 0.13 0.13 99 1008.7
20260509100240 69 111 0.0 0.0 0.00 0.13 0.13 99 1008.5
20260509095736 69 95 0.0 0.0 0.00 0.13 0.13 99 1008.2
20260509095234 69 100 0.0 0.9 0.00 0.13 0.13 99 1007.7
20260509094731 69 113 0.0 0.0 0.00 0.13 0.13 99 1007.7
20260509094227 69 119 0.0 0.0 0.00 0.13 0.13 99 1007.9
20260509093725 69 122 0.0 0.0 0.00 0.13 0.13 99 1007.9
20260509093222 69 103 0.0 0.0 0.00 0.13 0.13 99 1007.9
20260509092720 69 102 0.9 0.9 0.00 0.13 0.13 99 1008.5
20260509092218 69 103 0.0 0.0 0.00 0.13 0.13 99 1008.2
20260509091716 69 71 0.9 1.7 0.00 0.13 0.13 99 1008.2
20260509091212 69 135 0.9 1.7 0.00 0.13 0.13 99 1008.3
20260509090710 69 134 0.0 0.9 0.00 0.13 0.13 99 1008.3
20260509090207 69 95 0.0 0.9 0.00 0.13 0.13 99 1008.4
20260509085705 69 75 0.0 0.0 0.00 0.13 0.13 99 1008.6
20260509085201 69 105 3.5 5.2 0.00 0.13 0.13 99 1008.9
20260509084658 69 85 0.0 0.9 0.00 0.13 0.13 99 1009.2
20260509084154 69 114 0.0 0.9 0.00 0.13 0.13 99 1009.4
20260509083653 69 106 0.0 0.0 0.00 0.13 0.13 99 1009.3
20260509083148 69 109 0.0 0.0 0.00 0.13 0.13 99 1008.9
20260509082646 69 61 0.9 0.9 0.00 0.13 0.13 99 1009.0
20260509082142 69 107 0.0 0.0 0.00 0.13 0.13 99 1008.9
20260509081639 69 103 1.7 2.6 0.07 0.13 0.13 99 1009.0
20260509081137 69 106 0.9 0.9 0.12 0.13 0.13 99 1009.0
20260509080635 69 116 0.9 1.7 0.19 0.13 0.13 99 1008.9
20260509080132 69 134 1.7 1.7 0.07 0.11 0.11 99 1009.2
20260509075630 69 79 0.0 0.9 0.05 0.10 0.10 99 1009.5
20260509075128 69 132 0.0 0.0 0.05 0.10 0.10 99 1009.7
20260509074624 69 149 0.0 0.0 0.07 0.09 0.09 99 1010.2
20260509074121 69 159 0.9 0.9 0.07 0.09 0.09 99 1010.0
20260509073618 69 136 0.0 1.7 0.05 0.08 0.08 99 1009.8
20260509073114 69 118 0.0 0.0 0.12 0.08 0.08 99 1009.7
20260509072611 69 116 0.0 0.0 0.07 0.07 0.07 99 1010.0
20260509072108 69 114 0.0 0.0 0.07 0.07 0.07 99 1010.3
20260509071604 69 111 0.0 0.0 0.00 0.06 0.06 99 1010.0
20260509071102 69 108 0.9 0.9 0.00 0.06 0.06 99 1009.5
20260509070559 68 218 0.9 1.7 0.00 0.06 0.06 99 1009.5
20260509070055 68 125 0.0 0.0 0.00 0.06 0.06 99 1010.3
20260509065550 68 15 1.7 1.7 0.05 0.06 0.06 99 1009.9
20260509065047 68 81 0.9 0.9 0.28 0.06 0.06 99 1009.7
20260509064544 68 116 0.0 0.9 0.24 0.05 0.05 99 1009.8
20260509064043 68 112 0.0 0.0 0.00 0.01 0.01 99 1010.1
20260509063537 68 110 0.0 0.0 0.00 0.01 0.01 99 1010.4
20260509063035 68 120 0.0 0.0 0.07 0.01 0.01 99 1010.6
20260509062532 68 92 0.0 0.0 0.07 0.01 0.01 99 1010.3
20260509062030 68 111 0.0 0.0 0.00 0.00 0.00 99 1010.1
20260509061526 68 126 0.9 0.9 0.00 0.00 0.00 99 1010.1
20260509061024 68 102 0.0 0.9 0.00 0.00 0.00 99 1010.3
20260509060521 68 114 0.0 0.0 0.00 0.00 0.00 99 1010.8
20260509060017 68 114 0.0 0.0 0.00 0.00 0.00 99 1010.9
20260509055512 68 112 0.9 0.9 0.00 0.00 0.00 99 1010.9
20260509055009 68 111 0.0 0.0 0.00 0.00 0.00 99 1011.4
20260509054505 68 95 0.0 0.0 0.00 0.00 0.00 99 1011.3
20260509054004 68 105 0.0 0.0 0.00 0.00 0.00 99 1011.2
20260509053502 68 111 0.0 0.0 0.00 0.00 0.00 99 1011.6
20260509052958 68 116 0.0 0.0 0.00 0.00 0.00 99 1011.6
20260509052456 68 95 0.0 0.0 0.00 0.00 0.00 99 1011.9
20260509051954 68 114 0.0 0.0 0.00 0.00 0.00 99 1011.8
20260509051451 68 109 0.0 0.0 0.00 0.00 0.00 99 1011.8
20260509050948 68 131 0.0 0.0 0.00 0.00 0.00 99 1012.2
20260509050445 68 63 0.9 0.9 0.07 0.00 0.00 99 1011.5
20260509045941 68 88 0.0 0.0 0.07 3.61 3.61 99 1011.4
20260509045439 68 83 2.6 2.6 0.05 3.60 3.60 99 1011.3
20260509044935 68 86 0.0 0.0 0.05 3.60 3.60 99 1011.1
20260509044434 67 135 0.0 0.0 0.07 3.59 3.59 99 1011.2
20260509043931 67 147 0.9 0.9 0.12 3.59 3.59 99 1010.6
20260509043426 67 117 0.9 0.9 0.12 3.58 3.58 99 1010.8
20260509042922 66 98 0.9 0.9 0.07 3.57 3.57 99 1011.3
20260509042419 67 119 0.9 0.9 0.12 3.57 3.57 99 1011.8
20260509041915 67 97 0.0 0.0 0.05 3.56 3.56 99 1011.8
20260509041412 67 106 0.0 0.0 0.07 3.55 3.55 99 1012.1
20260509040910 66 103 0.0 0.0 0.07 3.55 3.55 99 1011.7
20260509040408 66 116 0.0 0.0 0.00 3.54 3.54 99 1011.4
20260509035905 66 125 0.0 0.9 0.00 3.54 3.54 99 1011.0
20260509035402 66 112 0.0 0.0 0.00 3.54 3.54 99 1011.2
20260509034858 66 103 0.0 0.0 0.00 3.54 3.54 99 1011.5
20260509034355 66 120 0.0 0.0 0.00 3.54 3.54 99 1011.7
20260509033852 66 100 0.0 0.0 0.00 3.54 3.54 99 1011.8
20260509033350 66 98 0.0 0.0 0.00 3.54 3.54 99 1011.6
20260509032846 66 100 0.0 0.0 0.00 3.54 3.54 99 1011.5
20260509032343 66 91 0.0 0.0 0.00 3.54 3.54 99 1011.5
20260509031842 66 102 0.0 0.0 0.00 3.54 3.54 99 1011.7
20260509031338 66 90 0.0 0.0 0.00 3.54 3.54 99 1011.4
20260509030836 66 108 0.0 0.0 0.00 3.54 3.54 99 1011.2
20260509030334 66 111 0.0 0.0 0.00 3.54 3.54 99 1011.3
20260509025831 66 100 0.0 0.0 0.00 3.54 3.54 99 1011.2
20260509025326 66 97 0.0 0.0 0.00 3.54 3.54 99 1011.1
20260509024821 66 111 0.0 0.0 0.00 3.54 3.54 99 1010.9
20260509024318 66 108 0.0 0.0 0.00 3.54 3.54 99 1011.0
20260509023815 66 114 0.0 0.0 0.00 3.54 3.54 99 1010.7
20260509023312 66 115 0.0 0.0 0.00 3.54 3.54 99 1010.6
20260509022809 66 109 0.0 0.0 0.00 3.54 3.54 99 1010.3
20260509022307 66 111 0.0 0.0 0.00 3.54 3.54 99 1010.8
20260509021803 66 109 0.0 0.0 0.00 3.54 3.54 99 1010.8
20260509021300 66 106 0.0 0.0 0.00 3.54 3.54 99 1010.7
20260509020758 66 100 0.0 0.0 0.00 3.54 3.54 99 1010.4
20260509020255 66 100 0.0 0.0 0.00 3.54 3.54 99 1010.6
20260509015753 66 112 0.0 0.0 0.00 3.54 3.54 99 1010.2
20260509015251 66 108 0.0 0.0 0.00 3.54 3.54 99 1010.5
20260509014747 66 108 0.0 0.0 0.00 3.54 3.54 99 1010.5
20260509014244 66 90 0.0 0.0 0.00 3.54 3.54 99 1010.6
20260509013741 66 107 0.0 0.0 0.00 3.54 3.54 99 1010.4
20260509013236 66 130 0.9 0.9 0.00 3.54 3.54 99 1010.6
20260509012733 66 108 0.0 0.0 0.00 3.54 3.54 99 1010.5
20260509012230 66 114 0.0 0.0 0.00 3.54 3.54 99 1010.7
20260509011727 66 112 0.0 0.0 0.00 3.54 3.54 99 1011.0
20260509011225 66 111 0.0 0.0 0.00 3.54 3.54 99 1010.6
20260509010723 66 77 0.9 0.9 0.00 3.54 3.54 99 1010.3
20260509010219 66 106 0.0 0.0 0.00 3.54 3.54 99 1010.4
20260509005717 66 49 0.0 0.9 0.05 3.54 3.54 99 1010.0
20260509005214 66 114 0.0 0.0 0.05 3.54 3.54 99 1010.1
20260509004714 66 117 0.0 0.0 0.00 3.53 3.53 99 1010.3
20260509004212 66 133 0.9 1.7 0.00 3.53 3.53 99 1009.7
20260509003710 66 97 0.0 0.0 0.00 3.53 3.53 99 1009.6
20260509003207 66 95 0.0 0.0 0.00 3.53 3.53 99 1010.0
20260509002704 67 120 0.0 0.0 0.00 3.53 3.53 99 1010.3
20260509002201 67 110 0.0 0.0 0.00 3.53 3.53 99 1010.2
20260509001659 67 83 0.9 0.9 0.00 3.53 3.53 99 1010.5
20260509001155 67 80 0.0 0.9 0.00 3.53 3.53 99 1010.7
20260509000653 67 115 0.0 0.9 0.00 3.53 3.53 99 1010.5
20260509000150 67 93 1.7 2.6 0.00 3.53 3.53 99 1010.8
20260508235647 67 95 0.9 0.9 0.07 3.53 3.53 99 1010.8
20260508235143 67 102 0.0 0.0 0.07 3.53 3.53 99 1010.9
20260508234641 67 90 0.0 1.7 0.12 3.53 3.53 99 1010.6
20260508234137 67 90 1.7 2.6 0.12 3.52 3.52 99 1010.7
20260508233637 67 73 0.9 1.7 0.07 3.51 3.51 99 1010.9
20260508233134 67 79 0.0 0.0 0.07 3.51 3.51 99 1011.2
20260508232631 66 43 1.7 2.6 0.05 3.50 3.50 99 1011.4
20260508232128 66 104 0.0 0.0 0.05 3.50 3.50 99 1011.5
20260508231625 66 117 0.0 0.0 0.00 3.49 3.49 99 1011.4
20260508231122 66 84 0.0 0.0 0.00 3.49 3.49 99 1011.1
20260508230618 66 96 0.0 0.0 0.07 3.49 3.49 99 1011.3
20260508230115 66 101 0.0 0.0 0.07 3.49 3.49 99 1011.4
20260508225613 66 99 0.0 0.0 0.00 3.48 3.48 99 1011.1
20260508225109 66 115 0.0 0.0 0.00 3.48 3.48 99 1011.1
20260508224607 66 112 0.0 0.0 0.00 3.48 3.48 99 1011.1
20260508224104 66 113 0.0 0.0 0.00 3.48 3.48 99 1011.0
20260508223602 66 100 0.0 0.0 0.00 3.48 3.48 99 1010.9
20260508223059 66 109 0.0 0.0 0.07 3.48 3.48 99 1010.8
20260508222556 66 103 0.0 0.0 0.12 3.48 3.48 99 1010.6
20260508222053 66 106 0.0 0.0 0.17 3.47 3.47 99 1010.7
20260508221549 66 120 0.0 0.0 0.24 3.46 3.46 99 1010.8
20260508221045 66 123 0.9 0.9 0.24 3.44 3.44 99 1010.5
20260508220542 66 109 0.9 0.9 0.24 3.42 3.42 99 1010.7
20260508220038 66 85 0.0 0.9 0.26 3.40 3.40 99 1011.0
20260508215535 66 103 0.0 0.0 0.26 3.38 3.38 99 1011.2
20260508215032 66 114 0.0 0.0 0.17 3.36 3.36 99 1011.3
20260508214529 66 115 0.0 0.0 0.24 3.35 3.35 99 1011.5
20260508214026 66 121 0.0 0.0 0.24 3.33 3.33 99 1011.2
20260508213523 66 105 0.0 0.0 0.19 3.31 3.31 99 1011.2
20260508213019 66 95 0.0 0.0 0.24 3.29 3.29 99 1011.4
20260508212515 66 100 0.0 0.0 0.26 3.27 3.27 99 1011.3
20260508212012 66 86 2.6 2.6 0.31 3.25 3.25 99 1011.2
20260508211508 66 100 1.7 1.7 0.28 3.23 3.23 99 1011.4
20260508211004 66 154 0.0 0.0 0.19 3.20 3.20 99 1011.5
20260508210501 66 176 1.7 2.6 0.12 3.18 3.18 99 1011.0
20260508205957 66 103 0.0 0.9 0.17 3.17 3.17 99 1010.8
20260508205454 65 132 0.9 0.9 0.24 3.16 3.16 99 1011.0
20260508204951 65 111 1.7 1.7 0.19 3.14 3.14 99 1011.1
20260508204448 65 97 1.7 1.7 0.19 3.13 3.13 99 1011.7
20260508203943 65 103 0.0 0.0 0.26 3.12 3.12 99 1012.1